Anderson, SC

8:43 PM EDT on April 27, 2017 (GMT -0400)
Anderson Regional

Weather History for KAND - March, 2013

Change the Weather History Date:

Wednesday, March 20, 2013

  Actual Average Record
Temperature  
Mean Temperature 47 °F -  
Max Temperature 57 °F 66 °F 86 °F (1982)
Min Temperature 37 °F 43 °F 28 °F (1965)
Degree Days  
Heating Degree Days 18    
Moisture  
Dew Point 20 °F    
Average Humidity 38    
Maximum Humidity 79    
Minimum Humidity 19    
Precipitation  
Precipitation 0.00 in - - ()
Sea Level Pressure  
Sea Level Pressure 29.99 in    
Wind  
Wind Speed 4 mph (West)    
Max Wind Speed 17 mph    
Max Gust Speed 22 mph    
Visibility 10 miles    
Events      
Averages and records for this station are not official NWS values.
T = Trace of Precipitation, MM = Missing Value Source: NWS Daily Summary

Daily Weather History Graph

Daily Weather History Graph

Search for Another Location

Airport or City:

Trip Planner

Search our weather history database for the weather conditions in past years. The results will help you decide how hot, cold, wet, or windy it might be!

Date:

Astronomy

Mar. 20, 2013 Rise Set
Actual Time 7:34 AM EDT 7:42 PM EDT
Civil Twilight 7:09 AM EDT 8:07 PM EDT
Nautical Twilight 6:39 AM EDT 8:37 PM EDT
Astronomical Twilight 6:10 AM EDT 9:06 PM EDT
Moon 1:30 PM EDT (3/20) 2:59 AM EDT (3/20)
Length of Visible Light 12h 58m
Length of Day
12h 08m
First Quarter, 59% of the Moon is Illuminated
Mar 20
First Quarter
Mar 27
Full
Apr 3
Last Quarter
Apr 10
New
Apr 18
First Quarter

Hourly Weather History & Observations

Time (EDT) Temp. Windchill Dew Point Humidity Pressure Visibility Wind Dir Wind Speed Gust Speed Precip Events Conditions
12:56 AM 48.9 °F - 14.0 °F 25% 30.05 in 10.0 mi NNE 3.5 mph - N/A   Clear
1:56 AM 48.0 °F - 16.0 °F 28% 30.04 in 10.0 mi North 4.6 mph - N/A   Clear
2:56 AM 45.0 °F - 18.0 °F 34% 30.04 in 10.0 mi Calm Calm - N/A   Clear
3:56 AM 37.9 °F - 25.0 °F 60% 30.04 in 10.0 mi Calm Calm - N/A   Clear
4:56 AM 37.0 °F - 26.1 °F 65% 30.03 in 10.0 mi Calm Calm - N/A   Clear
5:56 AM 37.0 °F - 28.0 °F 70% 30.05 in 10.0 mi Calm Calm - N/A   Mostly Cloudy
6:56 AM 37.9 °F - 28.9 °F 70% 30.06 in 10.0 mi Calm Calm - N/A   Mostly Cloudy
7:56 AM 37.9 °F - 32.0 °F 79% 30.09 in 10.0 mi Calm Calm - N/A   Overcast
8:56 AM 41.0 °F - 32.0 °F 70% 30.11 in 10.0 mi Calm Calm - N/A   Overcast
9:56 AM 46.9 °F - 27.0 °F 46% 30.12 in 10.0 mi SSE 3.5 mph - N/A   Overcast
10:56 AM 48.0 °F - 14.0 °F 26% 30.12 in 10.0 mi ESE 3.5 mph - N/A   Overcast
11:56 AM 50.0 °F - 12.9 °F 23% 30.11 in 10.0 mi Calm Calm - N/A   Mostly Cloudy
12:56 PM 52.0 °F - 14.0 °F 22% 30.07 in 10.0 mi Variable 5.8 mph - N/A   Partly Cloudy
1:56 PM 55.0 °F - 17.1 °F 23% 30.03 in 10.0 mi West 10.4 mph - N/A   Mostly Cloudy
2:56 PM 55.9 °F - 18.0 °F 23% 29.97 in 10.0 mi West 9.2 mph - N/A   Overcast
3:56 PM 55.9 °F - 16.0 °F 21% 29.93 in 10.0 mi SW 8.1 mph - N/A   Clear
4:56 PM 57.9 °F - 17.1 °F 20% 29.89 in 10.0 mi WSW 12.7 mph 21.9 mph N/A   Clear
5:56 PM 57.9 °F - 16.0 °F 19% 29.86 in 10.0 mi WSW 16.1 mph 20.7 mph N/A   Clear
6:56 PM 55.9 °F - 16.0 °F 21% 29.85 in 10.0 mi WSW 17.3 mph 21.9 mph N/A   Partly Cloudy
7:56 PM 54.0 °F - 18.0 °F 24% 29.85 in 10.0 mi West 11.5 mph - N/A   Clear
8:56 PM 48.9 °F - 19.9 °F 32% 29.85 in 10.0 mi West 6.9 mph - N/A   Clear
9:56 PM 48.0 °F - 19.0 °F 32% 29.85 in 10.0 mi West 5.8 mph - N/A   Clear
10:56 PM 46.9 °F - 21.0 °F 36% 29.85 in 10.0 mi West 9.2 mph - N/A   Clear
11:56 PM 46.0 °F 41.9 °F 24.1 °F 42% 29.86 in 10.0 mi NW 8.1 mph - N/A   Clear